Year,Month,Day,Hour,Minute,Value (Times are PST for temperature in C)
2002,06,29,00,00,14.40
2002,06,29,00,01,14.40
2002,06,29,00,02,14.40
2002,06,29,00,03,14.40
2002,06,29,00,04,14.40
2002,06,29,00,05,14.30
2002,06,29,00,06,14.30
2002,06,29,00,07,14.30
2002,06,29,00,08,14.30
2002,06,29,00,09,14.30
2002,06,29,00,10,14.30
2002,06,29,00,11,14.30
2002,06,29,00,12,14.30
2002,06,29,00,13,14.20
2002,06,29,00,14,14.20
2002,06,29,00,15,14.20
2002,06,29,00,16,14.20
2002,06,29,00,17,14.20
2002,06,29,00,18,14.20
2002,06,29,00,19,14.20
2002,06,29,00,20,14.20
2002,06,29,00,21,14.30
2002,06,29,00,22,14.30
2002,06,29,00,23,14.30
2002,06,29,00,24,14.30
2002,06,29,00,25,14.30
2002,06,29,00,26,14.30
2002,06,29,00,27,14.30
2002,06,29,00,28,14.30
2002,06,29,00,29,14.30
2002,06,29,00,30,14.40
2002,06,29,00,31,14.40
2002,06,29,00,32,14.40
2002,06,29,00,33,14.40
2002,06,29,00,34,14.40
2002,06,29,00,35,14.40
2002,06,29,00,36,14.40
2002,06,29,00,37,14.50
2002,06,29,00,38,14.50
2002,06,29,00,39,14.50
2002,06,29,00,40,14.50
2002,06,29,00,41,14.50
2002,06,29,00,42,14.50
2002,06,29,00,43,14.50
2002,06,29,00,44,14.50
2002,06,29,00,45,14.50
2002,06,29,00,46,14.50
2002,06,29,00,47,14.40
2002,06,29,00,48,14.40
2002,06,29,00,49,14.40
2002,06,29,00,50,14.40
2002,06,29,00,51,14.40
2002,06,29,00,52,14.50
2002,06,29,00,53,14.50
2002,06,29,00,54,14.50
2002,06,29,00,55,14.50
2002,06,29,00,56,14.50
2002,06,29,00,57,14.50
2002,06,29,00,58,14.50
2002,06,29,00,59,14.50
2002,06,29,01,00,14.50
2002,06,29,01,01,14.50
2002,06,29,01,02,14.50
2002,06,29,01,03,14.50
2002,06,29,01,04,14.50
2002,06,29,01,05,14.50
2002,06,29,01,06,14.50
2002,06,29,01,07,14.50
2002,06,29,01,08,14.50
2002,06,29,01,09,14.50
2002,06,29,01,10,14.50
2002,06,29,01,11,14.60
2002,06,29,01,12,14.60
2002,06,29,01,13,14.60
2002,06,29,01,14,14.60
2002,06,29,01,15,14.60
2002,06,29,01,16,14.70
2002,06,29,01,17,14.70
2002,06,29,01,18,14.70
2002,06,29,01,19,14.70
2002,06,29,01,20,14.60
2002,06,29,01,21,14.60
2002,06,29,01,22,14.60
2002,06,29,01,23,14.60
2002,06,29,01,24,14.60
2002,06,29,01,25,14.50
2002,06,29,01,26,14.50
2002,06,29,01,27,14.50
2002,06,29,01,28,14.50
2002,06,29,01,29,14.50
2002,06,29,01,30,14.60
2002,06,29,01,31,14.60
2002,06,29,01,32,14.50
2002,06,29,01,33,14.50
2002,06,29,01,34,14.50
2002,06,29,01,35,14.50
2002,06,29,01,36,14.50
2002,06,29,01,37,14.50
2002,06,29,01,38,14.50
2002,06,29,01,39,14.50
2002,06,29,01,40,14.60
2002,06,29,01,41,14.60
2002,06,29,01,42,14.50
2002,06,29,01,43,14.50
2002,06,29,01,44,14.50
2002,06,29,01,45,14.50
2002,06,29,01,46,14.50
2002,06,29,01,47,14.40
2002,06,29,01,48,14.50
2002,06,29,01,49,14.40
2002,06,29,01,50,14.40
2002,06,29,01,51,14.40
2002,06,29,01,52,14.30
2002,06,29,01,53,14.30
2002,06,29,01,54,14.30
2002,06,29,01,55,14.30
2002,06,29,01,56,14.30
2002,06,29,01,57,14.20
2002,06,29,01,58,14.20
2002,06,29,01,59,14.20
2002,06,29,02,00,14.20
2002,06,29,02,01,14.20
2002,06,29,02,02,14.20
2002,06,29,02,03,14.20
2002,06,29,02,04,14.10
2002,06,29,02,05,14.10
2002,06,29,02,06,14.20
2002,06,29,02,07,14.20
2002,06,29,02,08,14.20
2002,06,29,02,09,14.30
2002,06,29,02,10,14.40
2002,06,29,02,11,14.40
2002,06,29,02,12,14.40
2002,06,29,02,13,14.40
2002,06,29,02,14,14.40
2002,06,29,02,15,14.40
2002,06,29,02,16,14.40
2002,06,29,02,17,14.40
2002,06,29,02,18,14.40
2002,06,29,02,19,14.40
2002,06,29,02,20,14.40
2002,06,29,02,21,14.40
2002,06,29,02,22,14.40
2002,06,29,02,23,14.40
2002,06,29,02,24,14.40
2002,06,29,02,25,14.40
2002,06,29,02,26,14.40
2002,06,29,02,27,14.40
2002,06,29,02,28,14.40
2002,06,29,02,29,14.40
2002,06,29,02,30,14.40
2002,06,29,02,31,14.40
2002,06,29,02,32,14.40
2002,06,29,02,33,14.40
2002,06,29,02,34,14.40
2002,06,29,02,35,14.40
2002,06,29,02,36,14.40
2002,06,29,02,37,14.40
2002,06,29,02,38,14.30
2002,06,29,02,39,14.30
2002,06,29,02,40,14.30
2002,06,29,02,41,14.30
2002,06,29,02,42,14.20
2002,06,29,02,43,14.20
2002,06,29,02,44,14.20
2002,06,29,02,45,14.20
2002,06,29,02,46,14.10
2002,06,29,02,47,14.10
2002,06,29,02,48,14.00
2002,06,29,02,49,14.00
2002,06,29,02,50,14.00
2002,06,29,02,51,13.90
2002,06,29,02,52,13.90
2002,06,29,02,53,13.80
2002,06,29,02,54,13.80
2002,06,29,02,55,13.70
2002,06,29,02,56,13.70
2002,06,29,02,57,13.70
2002,06,29,02,58,13.70
2002,06,29,02,59,13.70
2002,06,29,03,00,13.70
2002,06,29,03,01,13.70
2002,06,29,03,02,13.70
2002,06,29,03,03,13.60
2002,06,29,03,04,13.60
2002,06,29,03,05,13.60
2002,06,29,03,06,13.60
2002,06,29,03,07,13.60
2002,06,29,03,08,13.60
2002,06,29,03,09,13.60
2002,06,29,03,10,13.50
2002,06,29,03,11,13.40
2002,06,29,03,12,13.40
2002,06,29,03,13,13.40
2002,06,29,03,14,13.40
2002,06,29,03,15,13.40
2002,06,29,03,16,13.40
2002,06,29,03,17,13.30
2002,06,29,03,18,13.30
2002,06,29,03,19,13.30
2002,06,29,03,20,13.20
2002,06,29,03,21,13.20
2002,06,29,03,22,13.20
2002,06,29,03,23,13.20
2002,06,29,03,24,13.30
2002,06,29,03,25,13.20
2002,06,29,03,26,13.20
2002,06,29,03,27,13.20
2002,06,29,03,28,13.30
2002,06,29,03,29,13.30
2002,06,29,03,30,13.30
2002,06,29,03,31,13.30
2002,06,29,03,32,13.40
2002,06,29,03,33,13.40
2002,06,29,03,34,13.30
2002,06,29,03,35,13.40
2002,06,29,03,36,13.40
2002,06,29,03,37,13.30
2002,06,29,03,38,13.40
2002,06,29,03,39,13.40
2002,06,29,03,40,13.40
2002,06,29,03,41,13.50
2002,06,29,03,42,13.50
2002,06,29,03,43,13.50
2002,06,29,03,44,13.50
2002,06,29,03,45,13.50
2002,06,29,03,46,13.50
2002,06,29,03,47,13.60
2002,06,29,03,48,13.60
2002,06,29,03,49,13.60
2002,06,29,03,50,13.60
2002,06,29,03,51,13.60
2002,06,29,03,52,13.60
2002,06,29,03,53,13.60
2002,06,29,03,54,13.50
2002,06,29,03,55,13.50
2002,06,29,03,56,13.60
2002,06,29,03,57,13.60
2002,06,29,03,58,13.60
2002,06,29,03,59,13.60
2002,06,29,04,00,13.60
2002,06,29,04,01,13.60
2002,06,29,04,02,13.50
2002,06,29,04,03,13.50
2002,06,29,04,04,13.50
2002,06,29,04,05,13.50
2002,06,29,04,06,13.50
2002,06,29,04,07,13.40
2002,06,29,04,08,13.40
2002,06,29,04,09,13.40
2002,06,29,04,10,13.40
2002,06,29,04,11,13.40
2002,06,29,04,12,13.40
2002,06,29,04,13,13.30
2002,06,29,04,14,13.30
2002,06,29,04,15,13.30
2002,06,29,04,16,13.30
2002,06,29,04,17,13.30
2002,06,29,04,18,13.20
2002,06,29,04,19,13.20
2002,06,29,04,20,13.20
2002,06,29,04,21,13.20
2002,06,29,04,22,13.20
2002,06,29,04,23,13.10
2002,06,29,04,24,13.10
2002,06,29,04,25,13.10
2002,06,29,04,26,13.10
2002,06,29,04,27,13.10
2002,06,29,04,28,13.00
2002,06,29,04,29,13.00
2002,06,29,04,30,13.00
2002,06,29,04,31,13.00
2002,06,29,04,32,13.00
2002,06,29,04,33,13.00
2002,06,29,04,34,13.00
2002,06,29,04,35,13.00
2002,06,29,04,36,13.10
2002,06,29,04,37,13.10
2002,06,29,04,38,13.10
2002,06,29,04,39,13.10
2002,06,29,04,40,13.10
2002,06,29,04,41,13.10
2002,06,29,04,42,13.10
2002,06,29,04,43,13.10
2002,06,29,04,44,13.10
2002,06,29,04,45,13.10
2002,06,29,04,46,13.10
2002,06,29,04,47,13.10
2002,06,29,04,48,13.10
2002,06,29,04,49,13.10
2002,06,29,04,50,13.10
2002,06,29,04,51,13.00
2002,06,29,04,52,13.00
2002,06,29,04,53,13.00
2002,06,29,04,54,13.00
2002,06,29,04,55,13.00
2002,06,29,04,56,13.00
2002,06,29,04,57,13.00
2002,06,29,04,58,13.00
2002,06,29,04,59,13.00
2002,06,29,05,00,13.00
2002,06,29,05,01,13.00
2002,06,29,05,02,13.00
2002,06,29,05,03,13.00
2002,06,29,05,04,12.90
2002,06,29,05,05,12.90
2002,06,29,05,06,12.90
2002,06,29,05,07,12.90
2002,06,29,05,08,12.90
2002,06,29,05,09,12.90
2002,06,29,05,10,12.90
2002,06,29,05,11,12.90
2002,06,29,05,12,12.90
2002,06,29,05,13,12.90
2002,06,29,05,14,12.90
2002,06,29,05,15,12.90
2002,06,29,05,16,12.90
2002,06,29,05,17,12.90
2002,06,29,05,18,12.90
2002,06,29,05,19,12.90
2002,06,29,05,20,12.80
2002,06,29,05,21,12.80
2002,06,29,05,22,12.80
2002,06,29,05,23,12.80
2002,06,29,05,24,12.80
2002,06,29,05,25,12.70
2002,06,29,05,26,12.70
2002,06,29,05,27,12.70
2002,06,29,05,28,12.70
2002,06,29,05,29,12.70
2002,06,29,05,30,12.60
2002,06,29,05,31,12.60
2002,06,29,05,32,12.60
2002,06,29,05,33,12.60
2002,06,29,05,34,12.60
2002,06,29,05,35,12.70
2002,06,29,05,36,12.70
2002,06,29,05,37,12.70
2002,06,29,05,38,12.70
2002,06,29,05,39,12.70
2002,06,29,05,40,12.70
2002,06,29,05,41,12.70
2002,06,29,05,42,12.70
2002,06,29,05,43,12.70
2002,06,29,05,44,12.70
2002,06,29,05,45,12.80
2002,06,29,05,46,12.80
2002,06,29,05,47,12.80
2002,06,29,05,48,12.80
2002,06,29,05,49,12.80
2002,06,29,05,50,12.80
2002,06,29,05,51,12.80
2002,06,29,05,52,12.80
2002,06,29,05,53,12.80
2002,06,29,05,54,12.80
2002,06,29,05,55,12.80
2002,06,29,05,56,12.80
2002,06,29,05,57,12.90
2002,06,29,05,58,12.90
2002,06,29,05,59,12.90
2002,06,29,06,00,12.90
2002,06,29,06,01,12.90
2002,06,29,06,02,12.90
2002,06,29,06,03,12.90
2002,06,29,06,04,12.90
2002,06,29,06,05,12.90
2002,06,29,06,06,12.90
2002,06,29,06,07,13.00
2002,06,29,06,08,13.00
2002,06,29,06,09,13.00
2002,06,29,06,10,13.00
2002,06,29,06,11,13.10
2002,06,29,06,12,13.10
2002,06,29,06,13,13.10
2002,06,29,06,14,13.10
2002,06,29,06,15,13.20
2002,06,29,06,16,13.20
2002,06,29,06,17,13.20
2002,06,29,06,18,13.20
2002,06,29,06,19,13.30
2002,06,29,06,20,13.30
2002,06,29,06,21,13.30
2002,06,29,06,22,13.30
2002,06,29,06,23,13.30
2002,06,29,06,24,13.30
2002,06,29,06,25,13.30
2002,06,29,06,26,13.30
2002,06,29,06,27,13.30
2002,06,29,06,28,13.30
2002,06,29,06,29,13.40
2002,06,29,06,30,13.40
2002,06,29,06,31,13.40
2002,06,29,06,32,13.40
2002,06,29,06,33,13.40
2002,06,29,06,34,13.50
2002,06,29,06,35,13.50
2002,06,29,06,36,13.50
2002,06,29,06,37,13.50
2002,06,29,06,38,13.60
2002,06,29,06,39,13.60
2002,06,29,06,40,13.60
2002,06,29,06,41,13.60
2002,06,29,06,42,13.70
2002,06,29,06,43,13.70
2002,06,29,06,44,13.70
2002,06,29,06,45,13.70
2002,06,29,06,46,13.70
2002,06,29,06,47,13.70
2002,06,29,06,48,13.70
2002,06,29,06,49,13.70
2002,06,29,06,50,13.70
2002,06,29,06,51,13.80
2002,06,29,06,52,13.80
2002,06,29,06,53,13.80
2002,06,29,06,54,13.80
2002,06,29,06,55,13.70
2002,06,29,06,56,13.70
2002,06,29,06,57,13.70
2002,06,29,06,58,13.70
2002,06,29,06,59,13.80
2002,06,29,07,00,13.80
2002,06,29,07,01,13.90
2002,06,29,07,02,13.90
2002,06,29,07,03,13.90
2002,06,29,07,04,13.90
2002,06,29,07,05,14.00
2002,06,29,07,06,14.00
2002,06,29,07,07,14.00
2002,06,29,07,08,14.10
2002,06,29,07,09,14.10
2002,06,29,07,10,14.10
2002,06,29,07,11,14.10
2002,06,29,07,12,14.10
2002,06,29,07,13,14.20
2002,06,29,07,14,14.20
2002,06,29,07,15,14.20
2002,06,29,07,16,14.20
2002,06,29,07,17,14.20
2002,06,29,07,18,14.20
2002,06,29,07,19,14.20
2002,06,29,07,20,14.10
2002,06,29,07,21,14.20
2002,06,29,07,22,14.20
2002,06,29,07,23,14.20
2002,06,29,07,24,14.20
2002,06,29,07,25,14.20
2002,06,29,07,26,14.20
2002,06,29,07,27,14.20
2002,06,29,07,28,14.20
2002,06,29,07,29,14.20
2002,06,29,07,30,14.20
2002,06,29,07,31,14.20
2002,06,29,07,32,14.20
2002,06,29,07,33,14.20
2002,06,29,07,34,14.20
2002,06,29,07,35,14.20
2002,06,29,07,36,14.30
2002,06,29,07,37,14.30
2002,06,29,07,38,14.40
2002,06,29,07,39,14.40
2002,06,29,07,40,14.50
2002,06,29,07,41,14.40
2002,06,29,07,42,14.40
2002,06,29,07,43,14.40
2002,06,29,07,44,14.40
2002,06,29,07,45,14.40
2002,06,29,07,46,14.50
2002,06,29,07,47,14.50
2002,06,29,07,48,14.60
2002,06,29,07,49,14.60
2002,06,29,07,50,14.60
2002,06,29,07,51,14.60
2002,06,29,07,52,14.60
2002,06,29,07,53,14.60
2002,06,29,07,54,14.70
2002,06,29,07,55,14.60
2002,06,29,07,56,14.70
2002,06,29,07,57,14.70
2002,06,29,07,58,14.80
2002,06,29,07,59,14.80
2002,06,29,08,00,14.80
2002,06,29,08,01,14.80
2002,06,29,08,02,14.90
2002,06,29,08,03,14.80
2002,06,29,08,04,14.90
2002,06,29,08,05,14.90
2002,06,29,08,06,15.00
2002,06,29,08,07,14.90
2002,06,29,08,08,15.00
2002,06,29,08,09,14.90
2002,06,29,08,10,14.90
2002,06,29,08,11,14.90
2002,06,29,08,12,15.00
2002,06,29,08,13,15.00
2002,06,29,08,14,15.00
2002,06,29,08,15,15.10
2002,06,29,08,16,15.10
2002,06,29,08,17,15.10
2002,06,29,08,18,15.10
2002,06,29,08,19,15.00
2002,06,29,08,20,15.00
2002,06,29,08,21,15.00
2002,06,29,08,22,15.00
2002,06,29,08,23,14.90
2002,06,29,08,24,14.90
2002,06,29,08,25,14.80
2002,06,29,08,26,14.80
2002,06,29,08,27,14.80
2002,06,29,08,28,14.70
2002,06,29,08,29,14.70
2002,06,29,08,30,14.70
2002,06,29,08,31,14.70
2002,06,29,08,32,14.80
2002,06,29,08,33,14.80
2002,06,29,08,34,14.90
2002,06,29,08,35,15.00
2002,06,29,08,36,15.10
2002,06,29,08,37,15.20
2002,06,29,08,38,15.30
2002,06,29,08,39,15.40
2002,06,29,08,40,15.30
2002,06,29,08,41,15.30
2002,06,29,08,42,15.30
2002,06,29,08,43,15.30
2002,06,29,08,44,15.40
2002,06,29,08,45,15.50
2002,06,29,08,46,15.60
2002,06,29,08,47,15.70
2002,06,29,08,48,15.70
2002,06,29,08,49,15.70
2002,06,29,08,50,15.70
2002,06,29,08,51,15.70
2002,06,29,08,52,15.80
2002,06,29,08,53,15.80
2002,06,29,08,54,15.80
2002,06,29,08,55,15.80
2002,06,29,08,56,15.80
2002,06,29,08,57,15.80
2002,06,29,08,58,15.70
2002,06,29,08,59,15.70
2002,06,29,09,00,15.80
2002,06,29,09,01,15.90
2002,06,29,09,02,15.90
2002,06,29,09,03,16.00
2002,06,29,09,04,16.20
2002,06,29,09,05,16.10
2002,06,29,09,06,16.20
2002,06,29,09,07,16.20
2002,06,29,09,08,16.10
2002,06,29,09,09,16.10
2002,06,29,09,10,16.10
2002,06,29,09,11,16.10
2002,06,29,09,12,16.10
2002,06,29,09,13,16.10
2002,06,29,09,14,15.90
2002,06,29,09,15,15.90
2002,06,29,09,16,15.90
2002,06,29,09,17,15.90
2002,06,29,09,18,15.90
2002,06,29,09,19,15.90
2002,06,29,09,20,16.00
2002,06,29,09,21,15.90
2002,06,29,09,22,15.90
2002,06,29,09,23,15.90
2002,06,29,09,24,15.90
2002,06,29,09,25,15.90
2002,06,29,09,26,16.00
2002,06,29,09,27,16.00
2002,06,29,09,28,16.10
2002,06,29,09,29,16.10
2002,06,29,09,30,16.20
2002,06,29,09,31,16.30
2002,06,29,09,32,16.30
2002,06,29,09,33,16.40
2002,06,29,09,34,16.40
2002,06,29,09,35,16.50
2002,06,29,09,36,16.60
2002,06,29,09,37,16.60
2002,06,29,09,38,16.50
2002,06,29,09,39,16.40
2002,06,29,09,40,16.40
2002,06,29,09,41,16.40
2002,06,29,09,42,16.40
2002,06,29,09,43,16.40
2002,06,29,09,44,16.50
2002,06,29,09,45,16.60
2002,06,29,09,46,16.60
2002,06,29,09,47,16.50
2002,06,29,09,48,16.50
2002,06,29,09,49,16.50
2002,06,29,09,50,16.50
2002,06,29,09,51,16.50
2002,06,29,09,52,16.60
2002,06,29,09,53,16.60
2002,06,29,09,54,16.70
2002,06,29,09,55,16.70
2002,06,29,09,56,16.80
2002,06,29,09,57,16.90
2002,06,29,09,58,16.90
2002,06,29,09,59,16.90
2002,06,29,10,00,17.00
2002,06,29,10,01,17.10
2002,06,29,10,02,17.10
2002,06,29,10,03,17.00
2002,06,29,10,04,16.90
2002,06,29,10,05,16.80
2002,06,29,10,06,16.70
2002,06,29,10,07,16.70
2002,06,29,10,08,16.60
2002,06,29,10,09,16.60
2002,06,29,10,10,16.40
2002,06,29,10,11,16.40
2002,06,29,10,12,16.30
2002,06,29,10,13,16.30
2002,06,29,10,14,16.20
2002,06,29,10,15,16.20
2002,06,29,10,16,16.20
2002,06,29,10,17,16.10
2002,06,29,10,18,16.10
2002,06,29,10,19,16.10
2002,06,29,10,20,16.00
2002,06,29,10,21,15.90
2002,06,29,10,22,15.90
2002,06,29,10,23,15.80
2002,06,29,10,24,15.90
2002,06,29,10,25,15.90
2002,06,29,10,26,16.00
2002,06,29,10,27,16.10
2002,06,29,10,28,16.10
2002,06,29,10,29,16.10
2002,06,29,10,30,16.10
2002,06,29,10,31,16.10
2002,06,29,10,32,16.20
2002,06,29,10,33,16.20
2002,06,29,10,34,16.20
2002,06,29,10,35,16.20
2002,06,29,10,36,16.20
2002,06,29,10,37,16.30
2002,06,29,10,38,16.40
2002,06,29,10,39,16.40
2002,06,29,10,40,16.60
2002,06,29,10,41,16.70
2002,06,29,10,42,16.90
2002,06,29,10,43,17.00
2002,06,29,10,44,17.10
2002,06,29,10,45,17.30
2002,06,29,10,46,17.50
2002,06,29,10,47,17.60
2002,06,29,10,48,17.60
2002,06,29,10,49,17.70
2002,06,29,10,50,17.80
2002,06,29,10,51,17.90
2002,06,29,10,52,18.00
2002,06,29,10,53,18.10
2002,06,29,10,54,18.20
2002,06,29,10,55,18.30
2002,06,29,10,56,18.10
2002,06,29,10,57,17.80
2002,06,29,10,58,17.40
2002,06,29,10,59,17.10
2002,06,29,11,00,16.90
2002,06,29,11,01,16.60
2002,06,29,11,02,16.40
2002,06,29,11,03,16.40
2002,06,29,11,04,16.40
2002,06,29,11,05,16.40
2002,06,29,11,06,16.40
2002,06,29,11,07,16.50
2002,06,29,11,08,16.50
2002,06,29,11,09,16.60
2002,06,29,11,10,16.70
2002,06,29,11,11,16.70
2002,06,29,11,12,16.70
2002,06,29,11,13,16.70
2002,06,29,11,14,16.70
2002,06,29,11,15,16.80
2002,06,29,11,16,16.70
2002,06,29,11,17,16.60
2002,06,29,11,18,16.40
2002,06,29,11,19,16.30
2002,06,29,11,20,16.40
2002,06,29,11,21,16.40
2002,06,29,11,22,16.20
2002,06,29,11,23,16.10
2002,06,29,11,24,16.20
2002,06,29,11,25,16.30
2002,06,29,11,26,16.40
2002,06,29,11,27,16.40
2002,06,29,11,28,16.40
2002,06,29,11,29,16.40
2002,06,29,11,30,16.10
2002,06,29,11,31,16.00
2002,06,29,11,32,16.00
2002,06,29,11,33,15.90
2002,06,29,11,34,15.90
2002,06,29,11,35,16.00
2002,06,29,11,36,16.00
2002,06,29,11,37,15.80
2002,06,29,11,38,15.90
2002,06,29,11,39,15.80
2002,06,29,11,40,15.80
2002,06,29,11,41,15.70
2002,06,29,11,42,15.70
2002,06,29,11,43,15.70
2002,06,29,11,44,15.60
2002,06,29,11,45,15.70
2002,06,29,11,46,15.70
2002,06,29,11,47,15.60
2002,06,29,11,48,15.60
2002,06,29,11,49,15.70
2002,06,29,11,50,15.70
2002,06,29,11,51,15.70
2002,06,29,11,52,15.80
2002,06,29,11,53,15.90
2002,06,29,11,54,15.80
2002,06,29,11,55,15.80
2002,06,29,11,56,15.70
2002,06,29,11,57,15.70
2002,06,29,11,58,15.80
2002,06,29,11,59,15.90
2002,06,29,12,00,15.90
2002,06,29,12,01,15.90
2002,06,29,12,02,15.90
2002,06,29,12,03,16.00
2002,06,29,12,04,15.90
2002,06,29,12,05,15.80
2002,06,29,12,06,15.60
2002,06,29,12,07,15.50
2002,06,29,12,08,15.60
2002,06,29,12,09,15.60
2002,06,29,12,10,15.60
2002,06,29,12,11,15.60
2002,06,29,12,12,15.70
2002,06,29,12,13,15.80
2002,06,29,12,14,15.80
2002,06,29,12,15,15.90
2002,06,29,12,16,16.00
2002,06,29,12,17,16.00
2002,06,29,12,18,16.00
2002,06,29,12,19,15.90
2002,06,29,12,20,15.90
2002,06,29,12,21,15.90
2002,06,29,12,22,16.00
2002,06,29,12,23,16.00
2002,06,29,12,24,16.00
2002,06,29,12,25,16.00
2002,06,29,12,26,16.00
2002,06,29,12,27,16.10
2002,06,29,12,28,16.00
2002,06,29,12,29,16.00
2002,06,29,12,30,16.10
2002,06,29,12,31,16.10
2002,06,29,12,32,16.10
2002,06,29,12,33,16.10
2002,06,29,12,34,16.10
2002,06,29,12,35,16.10
2002,06,29,12,36,16.10
2002,06,29,12,37,16.10
2002,06,29,12,38,16.00
2002,06,29,12,39,15.70
2002,06,29,12,40,15.70
2002,06,29,12,41,15.70
2002,06,29,12,42,15.60
2002,06,29,12,43,15.70
2002,06,29,12,44,15.70
2002,06,29,12,45,15.70
2002,06,29,12,46,15.70
2002,06,29,12,47,15.80
2002,06,29,12,48,15.80
2002,06,29,12,49,15.90
2002,06,29,12,50,15.80
2002,06,29,12,51,15.80
2002,06,29,12,52,15.90
2002,06,29,12,53,16.00
2002,06,29,12,54,16.00
2002,06,29,12,55,16.10
2002,06,29,12,56,16.20
2002,06,29,12,57,16.30
2002,06,29,12,58,16.30
2002,06,29,12,59,16.30
2002,06,29,13,00,16.30
2002,06,29,13,01,16.30
2002,06,29,13,02,16.40
2002,06,29,13,03,16.50
2002,06,29,13,04,16.60
2002,06,29,13,05,16.70
2002,06,29,13,06,16.70
2002,06,29,13,07,16.70
2002,06,29,13,08,16.90
2002,06,29,13,09,16.90
2002,06,29,13,10,16.90
2002,06,29,13,11,16.90
2002,06,29,13,12,16.90
2002,06,29,13,13,16.90
2002,06,29,13,14,16.80
2002,06,29,13,15,16.80
2002,06,29,13,16,16.70
2002,06,29,13,17,16.70
2002,06,29,13,18,16.70
2002,06,29,13,19,16.70
2002,06,29,13,20,16.80
2002,06,29,13,21,16.90
2002,06,29,13,22,17.00
2002,06,29,13,23,17.00
2002,06,29,13,24,17.00
2002,06,29,13,25,17.00
2002,06,29,13,26,17.00
2002,06,29,13,27,17.00
2002,06,29,13,28,17.00
2002,06,29,13,29,17.00
2002,06,29,13,30,17.00
2002,06,29,13,31,17.00
2002,06,29,13,32,17.00
2002,06,29,13,33,17.10
2002,06,29,13,34,17.00
2002,06,29,13,35,17.00
2002,06,29,13,36,16.90
2002,06,29,13,37,16.90
2002,06,29,13,38,16.80
2002,06,29,13,39,16.80
2002,06,29,13,40,16.80
2002,06,29,13,41,16.70
2002,06,29,13,42,16.70
2002,06,29,13,43,16.70
2002,06,29,13,44,16.70
2002,06,29,13,45,16.70
2002,06,29,13,46,16.60
2002,06,29,13,47,16.60
2002,06,29,13,48,16.60
2002,06,29,13,49,16.50
2002,06,29,13,50,16.60
2002,06,29,13,51,16.60
2002,06,29,13,52,16.70
2002,06,29,13,53,16.90
2002,06,29,13,54,17.10
2002,06,29,13,55,17.30
2002,06,29,13,56,17.40
2002,06,29,13,57,17.40
2002,06,29,13,58,17.50
2002,06,29,13,59,17.60
2002,06,29,14,00,17.70
2002,06,29,14,01,17.70
2002,06,29,14,02,17.60
2002,06,29,14,03,17.70
2002,06,29,14,04,17.70
2002,06,29,14,05,17.80
2002,06,29,14,06,17.60
2002,06,29,14,07,17.60
2002,06,29,14,08,17.60
2002,06,29,14,09,17.50
2002,06,29,14,10,17.50
2002,06,29,14,11,17.50
2002,06,29,14,12,17.40
2002,06,29,14,13,17.30
2002,06,29,14,14,17.30
2002,06,29,14,15,17.30
2002,06,29,14,16,17.30
2002,06,29,14,17,17.30
2002,06,29,14,18,17.30
2002,06,29,14,19,17.30
2002,06,29,14,20,17.40
2002,06,29,14,21,17.40
2002,06,29,14,22,17.50
2002,06,29,14,23,17.60
2002,06,29,14,24,17.60
2002,06,29,14,25,17.60
2002,06,29,14,26,17.70
2002,06,29,14,27,17.70
2002,06,29,14,28,17.90
2002,06,29,14,29,17.90
2002,06,29,14,30,18.10
2002,06,29,14,31,18.20
2002,06,29,14,32,18.30
2002,06,29,14,33,18.40
2002,06,29,14,34,18.30
2002,06,29,14,35,18.30
2002,06,29,14,36,18.30
2002,06,29,14,37,18.30
2002,06,29,14,38,18.40
2002,06,29,14,39,18.40
2002,06,29,14,40,18.40
2002,06,29,14,41,18.40
2002,06,29,14,42,18.50
2002,06,29,14,43,18.60
2002,06,29,14,44,18.60
2002,06,29,14,45,18.80
2002,06,29,14,46,18.80
2002,06,29,14,47,18.90
2002,06,29,14,48,18.90
2002,06,29,14,49,18.90
2002,06,29,14,50,18.70
2002,06,29,14,51,18.70
2002,06,29,14,52,18.80
2002,06,29,14,53,18.80
2002,06,29,14,54,18.80
2002,06,29,14,55,18.70
2002,06,29,14,56,18.70
2002,06,29,14,57,18.80
2002,06,29,14,58,18.80
2002,06,29,14,59,18.90
2002,06,29,15,00,18.90
2002,06,29,15,01,18.80
2002,06,29,15,02,18.70
2002,06,29,15,03,18.90
2002,06,29,15,04,18.80
2002,06,29,15,05,18.90
2002,06,29,15,06,18.80
2002,06,29,15,07,18.80
2002,06,29,15,08,18.80
2002,06,29,15,09,18.70
2002,06,29,15,10,18.60
2002,06,29,15,11,18.60
2002,06,29,15,12,18.60
2002,06,29,15,13,18.40
2002,06,29,15,14,18.50
2002,06,29,15,15,18.50
2002,06,29,15,16,18.30
2002,06,29,15,17,18.00
2002,06,29,15,18,18.10
2002,06,29,15,19,18.10
2002,06,29,15,20,18.00
2002,06,29,15,21,18.00
2002,06,29,15,22,18.00
2002,06,29,15,23,18.10
2002,06,29,15,24,18.00
2002,06,29,15,25,17.90
2002,06,29,15,26,17.90
2002,06,29,15,27,17.90
2002,06,29,15,28,17.90
2002,06,29,15,29,18.00
2002,06,29,15,30,18.00
2002,06,29,15,31,18.00
2002,06,29,15,32,18.00
2002,06,29,15,33,17.90
2002,06,29,15,34,17.90
2002,06,29,15,35,18.00
2002,06,29,15,36,18.30
2002,06,29,15,37,18.30
2002,06,29,15,38,18.20
2002,06,29,15,39,18.30
2002,06,29,15,40,18.20
2002,06,29,15,41,18.30
2002,06,29,15,42,18.40
2002,06,29,15,43,18.30
2002,06,29,15,44,18.10
2002,06,29,15,45,18.00
2002,06,29,15,46,17.90
2002,06,29,15,47,17.80
2002,06,29,15,48,17.60
2002,06,29,15,49,17.60
2002,06,29,15,50,17.50
2002,06,29,15,51,17.40
2002,06,29,15,52,17.30
2002,06,29,15,53,17.30
2002,06,29,15,54,17.30
2002,06,29,15,55,17.30
2002,06,29,15,56,17.30
2002,06,29,15,57,17.40
2002,06,29,15,58,17.40
2002,06,29,15,59,17.50
2002,06,29,16,00,17.50
2002,06,29,16,01,17.50
2002,06,29,16,02,17.50
2002,06,29,16,03,17.50
2002,06,29,16,04,17.50
2002,06,29,16,05,17.40
2002,06,29,16,06,17.40
2002,06,29,16,07,17.40
2002,06,29,16,08,17.40
2002,06,29,16,09,17.30
2002,06,29,16,10,17.30
2002,06,29,16,11,17.30
2002,06,29,16,12,17.30
2002,06,29,16,13,17.30
2002,06,29,16,14,17.40
2002,06,29,16,15,17.40
2002,06,29,16,16,17.40
2002,06,29,16,17,17.30
2002,06,29,16,18,17.30
2002,06,29,16,19,17.20
2002,06,29,16,20,17.30
2002,06,29,16,21,17.30
2002,06,29,16,22,17.30
2002,06,29,16,23,17.40
2002,06,29,16,24,17.50
2002,06,29,16,25,17.60
2002,06,29,16,26,17.70
2002,06,29,16,27,17.70
2002,06,29,16,28,17.70
2002,06,29,16,29,17.80
2002,06,29,16,30,17.80
2002,06,29,16,31,17.70
2002,06,29,16,32,17.70
2002,06,29,16,33,17.70
2002,06,29,16,34,17.80
2002,06,29,16,35,17.80
2002,06,29,16,36,17.90
2002,06,29,16,37,18.00
2002,06,29,16,38,18.20
2002,06,29,16,39,18.30
2002,06,29,16,40,18.50
2002,06,29,16,41,18.60
2002,06,29,16,42,18.50
2002,06,29,16,43,18.50
2002,06,29,16,44,18.50
2002,06,29,16,45,18.30
2002,06,29,16,46,18.30
2002,06,29,16,47,18.20
2002,06,29,16,48,18.20
2002,06,29,16,49,18.20
2002,06,29,16,50,18.30
2002,06,29,16,51,18.40
2002,06,29,16,52,18.50
2002,06,29,16,53,18.60
2002,06,29,16,54,18.60
2002,06,29,16,55,18.60
2002,06,29,16,56,18.70
2002,06,29,16,57,18.60
2002,06,29,16,58,18.60
2002,06,29,16,59,18.60
2002,06,29,17,00,18.70
2002,06,29,17,01,18.60
2002,06,29,17,02,18.60
2002,06,29,17,03,18.50
2002,06,29,17,04,18.50
2002,06,29,17,05,18.50
2002,06,29,17,06,18.50
2002,06,29,17,07,18.40
2002,06,29,17,08,18.30
2002,06,29,17,09,18.30
2002,06,29,17,10,18.30
2002,06,29,17,11,18.20
2002,06,29,17,12,18.20
2002,06,29,17,13,18.20
2002,06,29,17,14,18.40
2002,06,29,17,15,18.50
2002,06,29,17,16,18.50
2002,06,29,17,17,18.60
2002,06,29,17,18,18.80
2002,06,29,17,19,19.00